ANG98 AYPY-YBCS

Flight info

Callsign ANG98
Flight time 1h 19m
Altitude 34000
Route UNSAM1 UNSAM DCT LENAK R210 ZANEY
Aircraft F100/M-DFILORVWY/H

Departure

Time 2026-04-23 11:36
Airport Port Moresby Jacksons International Airport (AYPY)

Arrival

Time 2026-04-23 12:56
Airport Cairns International Airport (YBCS)
Time Latitude Longitude Altitude Speed Heading
2026-04-23 11:19 -9.43764 147.21150 105 ft 0 kts 240°
2026-04-23 11:28 -9.43760 147.21157 102 ft 4 kts 241°
2026-04-23 11:29 -9.43748 147.21182 100 ft 4 kts 248°
2026-04-23 11:29 -9.43741 147.21207 103 ft 4 kts 261°
2026-04-23 11:29 -9.43743 147.21232 103 ft 4 kts 303°
2026-04-23 11:29 -9.43752 147.21241 100 ft 1 kts 328°
2026-04-23 11:30 -9.43753 147.21241 100 ft 0 kts 328°
2026-04-23 11:32 -9.43749 147.21238 100 ft 1 kts 328°
2026-04-23 11:32 -9.43728 147.21234 100 ft 4 kts 18°
2026-04-23 11:33 -9.43700 147.21266 101 ft 8 kts 53°
2026-04-23 11:33 -9.43642 147.21272 102 ft 11 kts 331°
2026-04-23 11:33 -9.43564 147.21224 101 ft 14 kts 328°
2026-04-23 11:33 -9.43476 147.21170 104 ft 15 kts 328°
2026-04-23 11:34 -9.43385 147.21113 101 ft 16 kts 328°
2026-04-23 11:34 -9.43283 147.21095 102 ft 16 kts 33°
2026-04-23 11:34 -9.43222 147.21186 104 ft 16 kts 58°
2026-04-23 11:34 -9.43163 147.21282 104 ft 16 kts 58°
2026-04-23 11:35 -9.43113 147.21365 104 ft 7 kts 58°
2026-04-23 11:35 -9.43108 147.21399 106 ft 4 kts 127°
2026-04-23 11:35 -9.43138 147.21421 106 ft 8 kts 149°
2026-04-23 11:35 -9.43400 147.21582 104 ft 85 kts 148°
2026-04-23 11:36 -9.44125 147.22032 133 ft 151 kts 149°
2026-04-23 11:36 -9.45043 147.22596 716 ft 160 kts 148°
2026-04-23 11:36 -9.46030 147.23205 1241 ft 177 kts 148°
2026-04-23 11:36 -9.47134 147.23862 1794 ft 191 kts 153°
2026-04-23 11:37 -9.48526 147.23988 2007 ft 219 kts 194°
2026-04-23 11:37 -9.50055 147.23528 2352 ft 240 kts 195°
2026-04-23 11:37 -9.51757 147.23013 2586 ft 267 kts 195°
2026-04-23 11:37 -9.53568 147.22461 3072 ft 278 kts 195°
2026-04-23 11:38 -9.55383 147.21904 4029 ft 265 kts 193°
2026-04-23 11:38 -9.57127 147.21373 4901 ft 261 kts 194°
2026-04-23 11:38 -9.58910 147.20833 5408 ft 271 kts 195°
2026-04-23 11:38 -9.60745 147.20278 5955 ft 276 kts 195°
2026-04-23 11:39 -9.62578 147.19724 6542 ft 281 kts 195°
2026-04-23 11:39 -9.64465 147.19153 7114 ft 284 kts 195°
2026-04-23 11:39 -9.66370 147.18576 7692 ft 287 kts 195°
2026-04-23 11:39 -9.68298 147.17993 8253 ft 290 kts 196°
2026-04-23 11:40 -9.70240 147.17406 8824 ft 292 kts 196°
2026-04-23 11:40 -9.72180 147.16820 9338 ft 296 kts 196°
2026-04-23 11:40 -9.74172 147.16219 9830 ft 300 kts 196°
2026-04-23 11:40 -9.76205 147.15651 10206 ft 308 kts 194°
2026-04-23 11:41 -9.78341 147.15145 10362 ft 323 kts 192°
2026-04-23 11:41 -9.80594 147.14668 10629 ft 334 kts 191°
2026-04-23 11:41 -9.82892 147.14207 11092 ft 337 kts 191°
2026-04-23 11:41 -9.85168 147.13759 11647 ft 337 kts 191°
2026-04-23 11:42 -9.87488 147.13305 12142 ft 340 kts 191°
2026-04-23 11:42 -9.89819 147.12850 12668 ft 342 kts 191°
2026-04-23 11:42 -9.92165 147.12392 13207 ft 343 kts 191°
2026-04-23 11:42 -9.94526 147.11932 13728 ft 346 kts 191°
2026-04-23 11:43 -9.96879 147.11473 14162 ft 349 kts 191°
2026-04-23 11:43 -9.99285 147.11003 14588 ft 353 kts 191°
2026-04-23 11:43 -10.01713 147.10530 15052 ft 356 kts 191°
2026-04-23 11:43 -10.04159 147.10052 15466 ft 361 kts 191°
2026-04-23 11:44 -10.06614 147.09573 15856 ft 366 kts 191°
2026-04-23 11:44 -10.09134 147.09082 16378 ft 367 kts 191°
2026-04-23 11:44 -10.11660 147.08589 16827 ft 370 kts 191°
2026-04-23 11:44 -10.14189 147.08095 17180 ft 377 kts 191°
2026-04-23 11:45 -10.16779 147.07590 17607 ft 380 kts 191°
2026-04-23 11:45 -10.19398 147.07079 18012 ft 385 kts 191°
2026-04-23 11:45 -10.22062 147.06559 18329 ft 390 kts 191°
2026-04-23 11:45 -10.24706 147.06042 18755 ft 390 kts 191°
2026-04-23 11:46 -10.27384 147.05514 19221 ft 390 kts 192°
2026-04-23 11:46 -10.30047 147.04984 19664 ft 390 kts 192°
2026-04-23 11:46 -10.32674 147.04462 20111 ft 389 kts 192°
2026-04-23 11:46 -10.35344 147.03934 20475 ft 391 kts 192°
2026-04-23 11:47 -10.38023 147.03406 20843 ft 393 kts 192°
2026-04-23 11:47 -10.40715 147.02877 21255 ft 393 kts 192°
2026-04-23 11:47 -10.43408 147.02347 21616 ft 395 kts 192°
2026-04-23 11:47 -10.46110 147.01817 22013 ft 395 kts 193°
2026-04-23 11:48 -10.48816 147.01287 22410 ft 395 kts 193°
2026-04-23 11:48 -10.51489 147.00762 22772 ft 396 kts 193°
2026-04-23 11:48 -10.54203 147.00229 23118 ft 398 kts 193°
2026-04-23 11:48 -10.56930 146.99695 23471 ft 398 kts 193°
2026-04-23 11:49 -10.59656 146.99159 23738 ft 400 kts 193°
2026-04-23 11:49 -10.62400 146.98622 23982 ft 402 kts 194°
2026-04-23 11:49 -10.65159 146.98081 24264 ft 402 kts 193°
2026-04-23 11:49 -10.67889 146.97545 24502 ft 404 kts 194°
2026-04-23 11:50 -10.70660 146.97002 24766 ft 405 kts 194°
2026-04-23 11:50 -10.73439 146.96456 25029 ft 407 kts 193°
2026-04-23 11:50 -10.76226 146.95914 25251 ft 409 kts 194°
2026-04-23 11:50 -10.79037 146.95375 25516 ft 409 kts 194°
2026-04-23 11:51 -10.81809 146.94843 25748 ft 411 kts 194°
2026-04-23 11:51 -10.84637 146.94298 25975 ft 413 kts 194°
2026-04-23 11:51 -10.87468 146.93749 26230 ft 414 kts 194°
2026-04-23 11:51 -10.90304 146.93197 26466 ft 416 kts 194°
2026-04-23 11:52 -10.93144 146.92643 26815 ft 414 kts 194°
2026-04-23 11:52 -10.95964 146.92092 27203 ft 411 kts 194°
2026-04-23 11:52 -10.98735 146.91550 27531 ft 410 kts 195°
2026-04-23 11:52 -11.01544 146.90999 27829 ft 409 kts 194°
2026-04-23 11:53 -11.04344 146.90450 28100 ft 409 kts 194°
2026-04-23 11:53 -11.07142 146.89901 28412 ft 409 kts 194°
2026-04-23 11:53 -11.09932 146.89353 28702 ft 408 kts 194°
2026-04-23 11:53 -11.12724 146.88805 28981 ft 407 kts 195°
2026-04-23 11:54 -11.15509 146.88258 29271 ft 406 kts 194°
2026-04-23 11:54 -11.18244 146.87720 29545 ft 406 kts 194°
2026-04-23 11:54 -11.21018 146.87175 29827 ft 405 kts 195°
2026-04-23 11:54 -11.23798 146.86629 30071 ft 404 kts 194°
2026-04-23 11:55 -11.26559 146.86087 30302 ft 403 kts 195°
2026-04-23 11:55 -11.29274 146.85554 30560 ft 401 kts 195°
2026-04-23 11:55 -11.32003 146.85018 30786 ft 399 kts 195°
2026-04-23 11:55 -11.34731 146.84482 31005 ft 398 kts 195°
2026-04-23 11:56 -11.37455 146.83947 31236 ft 396 kts 195°
2026-04-23 11:56 -11.40158 146.83416 31466 ft 394 kts 195°
2026-04-23 11:56 -11.42854 146.82886 31689 ft 392 kts 195°
2026-04-23 11:56 -11.45508 146.82364 31882 ft 391 kts 195°
2026-04-23 11:57 -11.48189 146.81837 32076 ft 390 kts 195°
2026-04-23 11:57 -11.50851 146.81314 32263 ft 389 kts 195°
2026-04-23 11:57 -11.53505 146.80793 32438 ft 388 kts 195°
2026-04-23 11:57 -11.56158 146.80271 32609 ft 387 kts 195°
2026-04-23 11:58 -11.58798 146.79752 32779 ft 386 kts 195°
2026-04-23 11:58 -11.61433 146.79235 32946 ft 385 kts 195°
2026-04-23 11:58 -11.64044 146.78721 33046 ft 387 kts 195°
2026-04-23 11:59 -11.69304 146.77688 33052 ft 382 kts 195°
2026-04-23 11:59 -11.74528 146.76661 33054 ft 381 kts 195°
2026-04-23 12:00 -11.79710 146.75643 33057 ft 381 kts 195°
2026-04-23 12:00 -11.84921 146.74619 33059 ft 381 kts 195°
2026-04-23 12:01 -11.89251 146.73768 33061 ft 381 kts 195°
2026-04-23 12:01 -11.94470 146.72742 33060 ft 381 kts 195°
2026-04-23 12:02 -12.00545 146.71554 33065 ft 381 kts 195°
2026-04-23 12:02 -12.04887 146.70718 33061 ft 381 kts 195°
2026-04-23 12:03 -12.10105 146.69701 33066 ft 381 kts 195°
2026-04-23 12:03 -12.15327 146.68673 33066 ft 381 kts 195°
2026-04-23 12:04 -12.20543 146.67641 33074 ft 381 kts 195°
2026-04-23 12:04 -12.25732 146.66612 33075 ft 381 kts 195°
2026-04-23 12:05 -12.30950 146.65576 33072 ft 381 kts 195°
2026-04-23 12:05 -12.36149 146.64544 33075 ft 381 kts 195°
2026-04-23 12:06 -12.41373 146.63507 33075 ft 381 kts 195°
2026-04-23 12:06 -12.49164 146.61959 33075 ft 381 kts 195°
2026-04-23 12:07 -12.54354 146.60929 33081 ft 381 kts 195°
2026-04-23 12:07 -12.59569 146.59893 33086 ft 381 kts 195°
2026-04-23 12:08 -12.64780 146.58858 33086 ft 381 kts 195°
2026-04-23 12:08 -12.69957 146.57829 33092 ft 381 kts 195°
2026-04-23 12:09 -12.75163 146.56795 33092 ft 381 kts 195°
2026-04-23 12:09 -12.80348 146.55765 33095 ft 381 kts 195°
2026-04-23 12:10 -12.85546 146.54733 33107 ft 380 kts 196°
2026-04-23 12:10 -12.90738 146.53702 33101 ft 380 kts 196°
2026-04-23 12:11 -12.95932 146.52670 33100 ft 380 kts 196°
2026-04-23 12:11 -13.01131 146.51637 33102 ft 380 kts 196°
2026-04-23 12:12 -13.06302 146.50609 33107 ft 380 kts 196°
2026-04-23 12:12 -13.11508 146.49575 33109 ft 380 kts 196°
2026-04-23 12:13 -13.16674 146.48549 33122 ft 380 kts 196°
2026-04-23 12:13 -13.21869 146.47517 33114 ft 380 kts 196°
2026-04-23 12:14 -13.27069 146.46484 33120 ft 380 kts 196°
2026-04-23 12:14 -13.32244 146.45455 33120 ft 380 kts 196°
2026-04-23 12:15 -13.37438 146.44423 33117 ft 380 kts 196°
2026-04-23 12:15 -13.42633 146.43391 33120 ft 380 kts 196°
2026-04-23 12:16 -13.47790 146.42367 33132 ft 379 kts 196°
2026-04-23 12:16 -13.52980 146.41335 33135 ft 379 kts 196°
2026-04-23 12:17 -13.58172 146.40304 33138 ft 379 kts 196°
2026-04-23 12:17 -13.63325 146.39280 33144 ft 379 kts 196°
2026-04-23 12:18 -13.68517 146.38248 33141 ft 379 kts 196°
2026-04-23 12:18 -13.73707 146.37217 33159 ft 379 kts 197°
2026-04-23 12:19 -13.78854 146.36194 33149 ft 378 kts 197°
2026-04-23 12:19 -13.84031 146.35165 33148 ft 378 kts 197°
2026-04-23 12:20 -13.89206 146.34137 33152 ft 378 kts 197°
2026-04-23 12:20 -13.94361 146.33113 33151 ft 378 kts 197°
2026-04-23 12:21 -13.99543 146.32083 33155 ft 379 kts 197°
2026-04-23 12:21 -14.04707 146.31058 33171 ft 376 kts 197°
2026-04-23 12:22 -14.09844 146.30037 33162 ft 375 kts 197°
2026-04-23 12:22 -14.14948 146.29022 33166 ft 376 kts 197°
2026-04-23 12:23 -14.20099 146.27999 33174 ft 376 kts 197°
2026-04-23 12:23 -14.25208 146.26983 33170 ft 375 kts 197°
2026-04-23 12:24 -14.30345 146.25963 33171 ft 375 kts 197°
2026-04-23 12:24 -14.35471 146.24945 33187 ft 374 kts 197°
2026-04-23 12:25 -14.40572 146.23931 33178 ft 374 kts 197°
2026-04-23 12:25 -14.45694 146.22907 33192 ft 374 kts 197°
2026-04-23 12:26 -14.50781 146.21884 33191 ft 374 kts 197°
2026-04-23 12:26 -14.55896 146.20853 33191 ft 374 kts 197°
2026-04-23 12:27 -14.61006 146.19822 33207 ft 373 kts 198°
2026-04-23 12:27 -14.66117 146.18791 33201 ft 373 kts 198°
2026-04-23 12:28 -14.71183 146.17767 33200 ft 373 kts 198°
2026-04-23 12:28 -14.76291 146.16735 33202 ft 373 kts 198°
2026-04-23 12:29 -14.81392 146.15705 33209 ft 373 kts 198°
2026-04-23 12:29 -14.86468 146.14680 33209 ft 373 kts 198°
2026-04-23 12:30 -14.91553 146.13654 33227 ft 371 kts 198°
2026-04-23 12:30 -14.96634 146.12627 33225 ft 371 kts 198°
2026-04-23 12:31 -15.01673 146.11609 33230 ft 371 kts 198°
2026-04-23 12:31 -15.06763 146.10581 33223 ft 371 kts 198°
2026-04-23 12:32 -15.11844 146.09554 33231 ft 371 kts 198°
2026-04-23 12:32 -15.16897 146.08534 33229 ft 371 kts 198°
2026-04-23 12:33 -15.21976 146.07508 33233 ft 371 kts 198°
2026-04-23 12:33 -15.27024 146.06488 33238 ft 371 kts 198°
2026-04-23 12:34 -15.32105 146.05462 33233 ft 371 kts 198°
2026-04-23 12:34 -15.37122 146.04450 32727 ft 365 kts 198°
2026-04-23 12:35 -15.39618 146.03947 32176 ft 362 kts 198°
2026-04-23 12:35 -15.42081 146.03450 31669 ft 358 kts 198°
2026-04-23 12:35 -15.44515 146.02959 31189 ft 354 kts 198°
2026-04-23 12:35 -15.46923 146.02474 30729 ft 351 kts 198°
2026-04-23 12:36 -15.49279 146.01999 30274 ft 348 kts 198°
2026-04-23 12:36 -15.51712 146.01501 29761 ft 367 kts 198°
2026-04-23 12:36 -15.54312 146.00964 29226 ft 387 kts 198°
2026-04-23 12:36 -15.56951 146.00425 28663 ft 393 kts 197°
2026-04-23 12:37 -15.59632 145.99886 28067 ft 389 kts 197°
2026-04-23 12:37 -15.62278 145.99356 27520 ft 384 kts 197°
2026-04-23 12:37 -15.64927 145.98824 26967 ft 391 kts 197°
2026-04-23 12:37 -15.67586 145.98286 26446 ft 395 kts 197°
2026-04-23 12:38 -15.70295 145.97738 25913 ft 398 kts 196°
2026-04-23 12:38 -15.73017 145.97189 25393 ft 398 kts 196°
2026-04-23 12:38 -15.75737 145.96641 24882 ft 396 kts 196°
2026-04-23 12:38 -15.78438 145.96097 24361 ft 395 kts 196°
2026-04-23 12:39 -15.81135 145.95554 23848 ft 393 kts 196°
2026-04-23 12:39 -15.83811 145.95014 23277 ft 391 kts 196°
2026-04-23 12:39 -15.86479 145.94476 22689 ft 387 kts 195°
2026-04-23 12:39 -15.89120 145.93944 22122 ft 384 kts 195°
2026-04-23 12:40 -15.91716 145.93421 21587 ft 381 kts 195°
2026-04-23 12:40 -15.94317 145.92896 21057 ft 378 kts 195°
2026-04-23 12:40 -15.96893 145.92376 20540 ft 376 kts 195°
2026-04-23 12:40 -15.99461 145.91858 20033 ft 373 kts 195°
2026-04-23 12:41 -16.01912 145.91177 19518 ft 366 kts 205°
2026-04-23 12:41 -16.04221 145.90115 19017 ft 360 kts 210°
2026-04-23 12:41 -16.06432 145.88912 18508 ft 357 kts 212°
2026-04-23 12:41 -16.08600 145.87655 17937 ft 354 kts 213°
2026-04-23 12:42 -16.10738 145.86383 17368 ft 351 kts 213°
2026-04-23 12:42 -16.12815 145.85133 16842 ft 348 kts 213°
2026-04-23 12:42 -16.14911 145.83866 16312 ft 348 kts 213°
2026-04-23 12:42 -16.16998 145.82601 15798 ft 346 kts 214°
2026-04-23 12:43 -16.19070 145.81344 15289 ft 342 kts 213°
2026-04-23 12:43 -16.21129 145.80094 14793 ft 343 kts 213°
2026-04-23 12:43 -16.23185 145.78845 14295 ft 340 kts 213°
2026-04-23 12:43 -16.25233 145.77600 13772 ft 340 kts 212°
2026-04-23 12:44 -16.27252 145.76373 13215 ft 338 kts 212°
2026-04-23 12:44 -16.29273 145.75144 12682 ft 334 kts 210°
2026-04-23 12:44 -16.31283 145.73923 12170 ft 333 kts 210°
2026-04-23 12:44 -16.33280 145.72710 11663 ft 330 kts 208°
2026-04-23 12:45 -16.35232 145.71524 11184 ft 328 kts 208°
2026-04-23 12:45 -16.37205 145.70325 10698 ft 325 kts 206°
2026-04-23 12:45 -16.38498 145.69539 10447 ft 320 kts 206°
2026-04-23 12:45 -16.40935 145.68056 10296 ft 294 kts 206°
2026-04-23 12:46 -16.42696 145.66987 9912 ft 292 kts 205°
2026-04-23 12:46 -16.43860 145.66282 9642 ft 290 kts 205°
2026-04-23 12:46 -16.46182 145.64876 9119 ft 291 kts 205°
2026-04-23 12:46 -16.47361 145.64160 8856 ft 288 kts 206°
2026-04-23 12:47 -16.49078 145.63116 8493 ft 285 kts 205°
2026-04-23 12:47 -16.50760 145.62093 8162 ft 275 kts 205°
2026-04-23 12:47 -16.52417 145.61157 7778 ft 264 kts 197°
2026-04-23 12:47 -16.54106 145.60753 7429 ft 237 kts 178°
2026-04-23 12:48 -16.55663 145.60821 7057 ft 212 kts 166°
2026-04-23 12:48 -16.57036 145.61157 6682 ft 195 kts 157°
2026-04-23 12:48 -16.58323 145.61637 6285 ft 197 kts 153°
2026-04-23 12:48 -16.59617 145.62163 5847 ft 201 kts 153°
2026-04-23 12:49 -16.60920 145.62733 5439 ft 204 kts 152°
2026-04-23 12:49 -16.62203 145.63310 5112 ft 202 kts 152°
2026-04-23 12:49 -16.63481 145.63887 4813 ft 198 kts 152°
2026-04-23 12:49 -16.64733 145.64454 4539 ft 193 kts 152°
2026-04-23 12:50 -16.65954 145.65007 4279 ft 189 kts 152°
2026-04-23 12:50 -16.67146 145.65547 4040 ft 184 kts 152°
2026-04-23 12:50 -16.68307 145.66073 3800 ft 179 kts 152°
2026-04-23 12:50 -16.69431 145.66583 3570 ft 178 kts 152°
2026-04-23 12:51 -16.70565 145.67096 3338 ft 177 kts 152°
2026-04-23 12:51 -16.71689 145.67605 3109 ft 175 kts 152°
2026-04-23 12:51 -16.72788 145.68104 2882 ft 173 kts 153°
2026-04-23 12:51 -16.73872 145.68594 2661 ft 166 kts 154°
2026-04-23 12:52 -16.74913 145.69066 2434 ft 158 kts 153°
2026-04-23 12:52 -16.75875 145.69502 2226 ft 142 kts 153°
2026-04-23 12:52 -16.76725 145.69888 2039 ft 134 kts 153°
2026-04-23 12:52 -16.77616 145.70294 1906 ft 141 kts 154°
2026-04-23 12:53 -16.78443 145.70666 1667 ft 120 kts 154°
2026-04-23 12:53 -16.79211 145.71016 1551 ft 121 kts 155°
2026-04-23 12:53 -16.79981 145.71364 1388 ft 121 kts 156°
2026-04-23 12:53 -16.80763 145.71719 1239 ft 127 kts 155°
2026-04-23 12:54 -16.81569 145.72085 1072 ft 123 kts 155°
2026-04-23 12:54 -16.82353 145.72432 928 ft 121 kts 154°
2026-04-23 12:54 -16.83126 145.72776 780 ft 128 kts 154°
2026-04-23 12:54 -16.83950 145.73166 624 ft 130 kts 155°
2026-04-23 12:55 -16.84773 145.73541 432 ft 126 kts 157°
2026-04-23 12:55 -16.85649 145.73936 272 ft 142 kts 159°
2026-04-23 12:55 -16.86492 145.74313 45 ft 129 kts 157°
2026-04-23 12:55 -16.87270 145.74666 0 ft 102 kts 156°
2026-04-23 12:56 -16.87630 145.74828 16 ft 29 kts 156°
2026-04-23 12:56 -16.87724 145.74898 15 ft 13 kts 92°
2026-04-23 12:56 -16.87694 145.74990 16 ft 14 kts 66°
2026-04-23 12:56 -16.87660 145.75070 14 ft 9 kts 66°
2026-04-23 12:57 -16.87666 145.75132 15 ft 9 kts 140°
2026-04-23 12:57 -16.87727 145.75163 14 ft 10 kts 155°
2026-04-23 12:57 -16.87793 145.75193 14 ft 11 kts 157°
2026-04-23 12:57 -16.87849 145.75221 14 ft 6 kts 135°
2026-04-23 12:58 -16.87849 145.75260 14 ft 7 kts 68°
2026-04-23 12:58 -16.87834 145.75296 15 ft 2 kts 66°
2026-04-23 12:58 -16.87828 145.75310 14 ft 1 kts 66°
2026-04-23 12:58 -16.87827 145.75312 14 ft 0 kts 66°